H1 CPF 2 NER 2023 5 4 9 124 01 glonass146 H2 2216101 9146 54377 2023 5 4 0 0 0 2023 5 7 23 45 0 900 1 1 0 0 0 1 H9 10 0 60068 0.00000 0 16354427.054 10494908.379 16552159.439 10 0 60068 900.00000 0 14215967.680 10122195.535 18626925.400 10 0 60068 1800.00000 0 11823276.420 9894364.842 20340619.451 10 0 60068 2700.00000 0 9233684.044 9844480.523 21659965.617 10 0 60068 3600.00000 0 6511148.174 9994939.356 22559307.154 10 0 60068 4500.00000 0 3723823.723 10356419.150 23021105.933 10 0 60068 5400.00000 0 941464.307 10927333.899 23036287.431 10 0 60068 6300.00000 0 -1767238.917 11693819.411 22604424.527 10 0 60068 7200.00000 0 -4337271.758 12630251.222 21733756.023 10 0 60068 8100.00000 0 -6709757.323 13700274.452 20441038.768 10 0 60068 9000.00000 0 -8834160.709 14858303.852 18751235.190 10 0 60068 9900.00000 0 -10670146.817 16051432.422 16697041.118 10 0 60068 10800.00000 0 -12189014.097 17221669.543 14318261.821 10 0 60068 11700.00000 0 -13374644.499 18308415.270 11661047.261 10 0 60068 12600.00000 0 -14223929.845 19251066.949 8777000.540 10 0 60068 13500.00000 0 -14746656.791 19991648.143 5722176.316 10 0 60068 14400.00000 0 -14964855.382 20477348.354 2555988.530 10 0 60068 15300.00000 0 -14911638.977 20662865.299 -659950.991 10 0 60068 16200.00000 0 -14629585.130 20512449.504 -3863039.775 10 0 60068 17100.00000 0 -14168726.684 20001563.423 -6990913.274 10 0 60068 18000.00000 0 -13584239.179 19118083.565 -9982669.629 10 0 60068 18900.00000 0 -12933923.692 17862993.612 -12780065.538 10 0 60068 19800.00000 0 -12275592.971 16250538.253 -15328658.806 10 0 60068 20700.00000 0 -11664472.725 14307830.495 -17578874.363 10 0 60068 21600.00000 0 -11150729.074 12073928.531 -19486972.413 10 0 60068 22500.00000 0 -10777227.447 9598420.676 -21015899.616 10 0 60068 23400.00000 0 -10577618.043 6939577.670 -22136006.829 10 0 60068 24300.00000 0 -10574828.766 4162149.656 -22825619.900 10 0 60068 25200.00000 0 -10780028.929 1334899.815 -23071453.074 10 0 60068 26100.00000 0 -11192106.956 -1472022.630 -22868857.805 10 0 60068 27000.00000 0 -11797683.415 -4189760.993 -22221903.018 10 0 60068 27900.00000 0 -12571658.157 -6753370.487 -21143286.059 10 0 60068 28800.00000 0 -13478267.891 -9104270.317 -19654076.816 10 0 60068 29700.00000 0 -14472609.128 -11192427.754 -17783300.492 10 0 60068 30600.00000 0 -15502562.068 -12978184.740 -15567367.513 10 0 60068 31500.00000 0 -16511034.236 -14433652.674 -13049361.899 10 0 60068 32400.00000 0 -17438429.457 -15543619.036 -10278201.978 10 0 60068 33300.00000 0 -18225238.283 -16305929.793 -7307689.737 10 0 60068 34200.00000 0 -18814641.117 -16731333.512 -4195467.267 10 0 60068 35100.00000 0 -19155014.578 -16842795.300 -1001900.418 10 0 60068 36000.00000 0 -19202235.874 -16674310.834 2211088.783 10 0 60068 36900.00000 0 -18921688.407 -16269271.581 5381218.395 10 0 60068 37800.00000 0 -18289884.351 -15678450.771 8447048.531 10 0 60068 38700.00000 0 -17295635.914 -14957695.412 11349166.018 10 0 60068 39600.00000 0 -15940725.815 -14165421.685 14031329.153 10 0 60068 40500.00000 0 -14240048.300 -13360019.053 16441550.899 10 0 60068 41400.00000 0 -12221213.967 -12597272.025 18533100.126 10 0 60068 42300.00000 0 -9923633.834 -11927907.612 20265402.175 10 0 60068 43200.00000 0 -7397119.516 -11395371.141 21604821.927 10 0 60068 44100.00000 0 -4700056.261 -11033923.522 22525314.832 10 0 60068 45000.00000 0 -1897223.198 -10867139.731 23008933.633 10 0 60068 45900.00000 0 942650.341 -10906871.649 23046181.174 10 0 60068 46800.00000 0 3749492.609 -11152719.185 22636202.291 10 0 60068 47700.00000 0 6454554.556 -11592032.628 21786810.594 10 0 60068 48600.00000 0 8993022.856 -12200447.065 20514348.844 10 0 60068 49500.00000 0 11306473.250 -12942927.583 18843384.589 10 0 60068 50400.00000 0 13345062.744 -13775282.454 16806245.763 10 0 60068 51300.00000 0 15069369.688 -14646081.702 14442404.028 10 0 60068 52200.00000 0 16451805.035 -15498901.068 11797716.698 10 0 60068 53100.00000 0 17477535.635 -16274797.175 8923541.072 10 0 60068 54000.00000 0 18144880.801 -16914909.462 5875737.853 10 0 60068 54900.00000 0 18465165.414 -17363078.495 2713582.825 10 0 60068 55800.00000 0 18462035.863 -17568369.097 -501391.692 10 0 60068 56700.00000 0 18170268.028 -17487390.348 -3706602.412 10 0 60068 57600.00000 0 17634118.234 -17086312.905 -6839643.255 10 0 60068 58500.00000 0 16905287.774 -16342496.772 -9839510.934 10 0 60068 59400.00000 0 16040588.145 -15245659.278 -12647802.908 10 0 60068 60300.00000 0 15099406.931 -13798532.626 -15209863.182 10 0 60068 61200.00000 0 14141082.709 -12016982.253 -17475852.694 10 0 60068 62100.00000 0 13222300.950 -9929580.236 -19401722.805 10 0 60068 63000.00000 0 12394621.730 -7576651.134 -20950072.695 10 0 60068 63900.00000 0 11702244.037 -5008830.057 -22090874.038 10 0 60068 64800.00000 0 11180101.043 -2285193.118 -22802049.294 10 0 60068 65700.00000 0 10852366.283 528961.728 -23069893.050 10 0 60068 66600.00000 0 10731433.022 3364591.008 -22889329.031 10 0 60068 67500.00000 0 10817408.879 6151536.391 -22263998.646 10 0 60068 68400.00000 0 11098145.943 8821200.696 -21206180.215 10 0 60068 69300.00000 0 11549804.089 11309158.648 -19736541.116 10 0 60068 70200.00000 0 12137922.770 13557594.796 -17883728.270 10 0 60068 71100.00000 0 12818955.396 15517468.385 -15683805.253 10 0 60068 72000.00000 0 13542201.020 17150316.459 -13179547.255 10 0 60068 72900.00000 0 14252051.559 18429621.598 -10419607.616 10 0 60068 73800.00000 0 14890459.695 19341688.978 -7457572.203 10 0 60068 74700.00000 0 15399523.380 19885997.718 -4350919.915 10 0 60068 75600.00000 0 15724078.005 20075013.322 -1159909.399 10 0 60068 76500.00000 0 15814187.219 19933470.723 2053586.491 10 0 60068 77400.00000 0 15627427.410 19497159.033 5227276.048 10 0 60068 78300.00000 0 15130869.774 18811260.142 8299650.888 10 0 60068 79200.00000 0 14302676.553 17928311.628 11211171.912 10 0 60068 80100.00000 0 13133243.960 16905879.784 13905416.450 10 0 60068 81000.00000 0 11625843.309 15804040.624 16330164.893 10 0 60068 81900.00000 0 9796732.660 14682774.416 18438406.353 10 0 60068 82800.00000 0 7674733.207 13599382.715 20189244.507 10 0 60068 83700.00000 0 5300286.709 12606035.762 21548686.759 10 0 60068 84600.00000 0 2724031.632 11747552.554 22490302.024 10 0 60068 85500.00000 0 4955.488 11059506.240 22995734.775 10 0 60069 0.00000 0 -2791801.380 10566734.000 23055065.623 10 0 60069 900.00000 0 -5597402.728 10282313.591 22667011.242 10 0 60069 1800.00000 0 -8341929.889 10207050.383 21838959.337 10 0 60069 2700.00000 0 -10957049.741 10329495.965 20586837.330 10 0 60069 3600.00000 0 -13378623.696 10626498.997 18934816.070 10 0 60069 4500.00000 0 -15549151.447 11064265.670 16914853.256 10 0 60069 5400.00000 0 -17419947.837 11599886.042 14566084.167 10 0 60069 6300.00000 0 -18952962.161 12183262.627 11934070.351 10 0 60069 7200.00000 0 -20122163.639 12759360.323 9069919.977 10 0 60069 8100.00000 0 -20914434.785 13270682.711 6029296.357 10 0 60069 9000.00000 0 -21329934.883 13659869.719 2871333.698 10 0 60069 9900.00000 0 -21381918.107 13872305.926 -342518.515 10 0 60069 10800.00000 0 -21096013.985 13858628.004 -3549699.385 10 0 60069 11700.00000 0 -20509000.905 13577023.691 -6687764.304 10 0 60069 12600.00000 0 -19667125.010 12995223.406 -9695611.359 10 0 60069 13500.00000 0 -18624036.412 12092098.697 -12514681.309 10 0 60069 14400.00000 0 -17438430.939 10858798.442 -15090106.609 10 0 60069 15300.00000 0 -16171498.142 9299373.610 -17371786.105 10 0 60069 16200.00000 0 -14884284.360 7430863.206 -19315363.831 10 0 60069 17100.00000 0 -13635082.879 5282837.020 -20883092.589 10 0 60069 18000.00000 0 -12476961.757 2896413.888 -22044565.545 10 0 60069 18900.00000 0 -11455533.526 322796.248 -22777302.037 10 0 60069 19800.00000 0 -10607060.334 -2378617.955 -23067176.849 10 0 60069 20700.00000 0 -9956973.543 -5142467.391 -22908685.437 10 0 60069 21600.00000 0 -9518868.963 -7899910.673 -22305040.792 10 0 60069 22500.00000 0 -9294018.712 -10581257.930 -21268100.939 10 0 60069 23400.00000 0 -9271418.811 -13118641.614 -19818129.166 10 0 60069 24300.00000 0 -9428369.152 -15448616.186 -17983392.227 10 0 60069 25200.00000 0 -9731560.157 -17514579.513 -15799604.723 10 0 60069 26100.00000 0 -10138619.266 -19268916.255 -13309230.690 10 0 60069 27000.00000 0 -10600051.305 -20674775.226 -10560656.055 10 0 60069 27900.00000 0 -11061490.306 -21707408.080 -7607248.068 10 0 60069 28800.00000 0 -11466167.474 -22355014.765 -4506319.920 10 0 60069 29700.00000 0 -11757491.027 -22619061.883 -1318020.581 10 0 60069 30600.00000 0 -11881629.000 -22514061.900 1895828.726 10 0 60069 31500.00000 0 -11789986.035 -22066823.616 5072928.973 10 0 60069 32400.00000 0 -11441469.880 -21315206.426 8151705.663 10 0 60069 33300.00000 0 -10804451.932 -20306431.179 11072496.115 10 0 60069 34200.00000 0 -9858339.151 -19095018.997 13778698.983 10 0 60069 35100.00000 0 -8594690.863 -17740444.566 16217864.253 10 0 60069 36000.00000 0 -7017832.758 -16304602.094 18342703.271 10 0 60069 36900.00000 0 -5144941.429 -14849189.753 20111999.804 10 0 60069 37800.00000 0 -3005594.518 -13433121.558 21491405.241 10 0 60069 38700.00000 0 -640803.655 -12110074.358 22454103.088 10 0 60069 39600.00000 0 1898431.354 -10926271.931 22981330.318 10 0 60069 40500.00000 0 4552988.843 -9918598.318 23062745.677 10 0 60069 41400.00000 0 7257836.528 -9113118.944 22696637.694 10 0 60069 42300.00000 0 9944497.580 -8524071.275 21889967.922 10 0 60069 43200.00000 0 12543670.725 -8153367.348 20658247.813 10 0 60069 44100.00000 0 14987896.779 -7990629.345 19025250.579 10 0 60069 45000.00000 0 17214161.564 -8013757.184 17022562.443 10 0 60069 45900.00000 0 19166327.314 -8190004.781 14688980.740 10 0 60069 46800.00000 0 20797291.253 -8477520.170 12069769.370 10 0 60069 47700.00000 0 22070780.908 -8827284.847 9215785.159 10 0 60069 48600.00000 0 22962710.564 -9185370.497 6182491.491 10 0 60069 49500.00000 0 23462041.462 -9495417.371 3028878.169 10 0 60069 50400.00000 0 23571109.118 -9701228.749 -183691.211 10 0 60069 51300.00000 0 23305403.696 -9749370.549 -3392681.319 10 0 60069 52200.00000 0 22692812.681 -9591664.612 -6535612.223 10 0 60069 53100.00000 0 21772358.059 -9187468.493 -9551286.484 10 0 60069 54000.00000 0 20592481.885 -8505643.600 -12380991.084 10 0 60069 54900.00000 0 19208953.390 -7526126.863 -14969649.592 10 0 60069 55800.00000 0 17682486.915 -6241038.058 -17266901.129 10 0 60069 56700.00000 0 16076172.077 -4655274.922 -19228084.470 10 0 60069 57600.00000 0 14452825.259 -2786569.981 -20815107.793 10 0 60069 58500.00000 0 12872374.520 -665006.063 -21997187.193 10 0 60069 59400.00000 0 11389388.109 1667989.697 -22751439.994 10 0 60069 60300.00000 0 10050850.204 4161131.541 -23063321.955 10 0 60069 61200.00000 0 8894276.639 6755178.638 -22926900.685 10 0 60069 62100.00000 0 7946248.651 9385177.256 -22344960.829 10 0 60069 63000.00000 0 7221424.779 11982948.443 -21328939.820 10 0 60069 63900.00000 0 6722070.797 14479717.963 -19898696.181 10 0 60069 64800.00000 0 6438125.738 16808779.575 -18082115.465 10 0 60069 65700.00000 0 6347799.532 18908081.483 -15914561.883 10 0 60069 66600.00000 0 6418675.647 20722629.044 -13438186.523 10 0 60069 67500.00000 0 6609270.957 22206604.667 -10701105.731 10 0 60069 68400.00000 0 6870986.132 23325117.618 -7756465.613 10 0 60069 69300.00000 0 7150363.528 24055511.748 -4661410.822 10 0 60069 70200.00000 0 7391556.845 24388177.759 -1475977.554 10 0 60069 71100.00000 0 7538908.007 24326837.078 1738067.884 10 0 60069 72000.00000 0 7539522.404 23888286.529 4918422.482 10 0 60069 72900.00000 0 7345733.783 23101615.419 8003448.988 10 0 60069 73800.00000 0 6917354.810 22006928.461 10933364.383 10 0 60069 74700.00000 0 6223618.359 20653628.447 13651391.685 10 0 60069 75600.00000 0 5244727.504 19098330.677 16104853.299 10 0 60069 76500.00000 0 3972948.495 17402496.283 18246185.343 10 0 60069 77400.00000 0 2413200.042 15629883.080 20033853.932 10 0 60069 78300.00000 0 583113.010 13843919.888 21433156.361 10 0 60069 79200.00000 0 -1487443.471 12105113.263 22416892.298 10 0 60069 80100.00000 0 -3757351.475 10468594.158 22965892.385 10 0 60069 81000.00000 0 -6175710.036 8981906.175 23069394.247 10 0 60069 81900.00000 0 -8683718.225 7683127.065 22725258.511 10 0 60069 82800.00000 0 -11216899.146 6599401.517 21940020.238 10 0 60069 83700.00000 0 -13707574.157 5745946.249 20728774.017 10 0 60069 84600.00000 0 -16087485.875 5125569.019 19114893.942 10 0 60069 85500.00000 0 -18290461.839 4728721.809 17129592.701 10 0 60070 0.00000 0 -20255008.317 4534086.230 14811327.332 10 0 60070 900.00000 0 -21926727.222 4509666.685 12205060.660 10 0 60070 1800.00000 0 -23260452.323 4614345.674 9361395.024 10 0 60070 2700.00000 0 -24222018.294 4799835.201 6335590.344 10 0 60070 3600.00000 0 -24789585.036 5012941.858 3186488.394 10 0 60070 4500.00000 0 -24954461.963 5198048.953 -24636.733 10 0 60070 5400.00000 0 -24721396.783 5299709.622 -3235278.786 10 0 60070 6300.00000 0 -24108316.186 5265239.758 -6382925.878 10 0 60070 7200.00000 0 -23145529.261 5047199.390 -9406288.221 10 0 60070 8100.00000 0 -21874427.442 4605655.765 -12246501.952 10 0 60070 9000.00000 0 -20345736.327 3910130.703 -14848284.393 10 0 60070 9900.00000 0 -18617393.779 2941148.375 -17161017.241 10 0 60070 10800.00000 0 -16752144.547 1691316.836 -19139735.876 10 0 60070 11700.00000 0 -14814953.373 165896.637 -20746005.239 10 0 60070 12600.00000 0 -12870346.006 -1617168.208 -21948665.222 10 0 60070 13500.00000 0 -10979790.050 -3627758.772 -22724431.459 10 0 60070 14400.00000 0 -9199225.419 -5824608.375 -23058340.473 10 0 60070 15300.00000 0 -7576847.431 -8156805.576 -22944031.321 10 0 60070 16200.00000 0 -6151234.400 -10565710.432 -22383859.130 10 0 60070 17100.00000 0 -4949896.807 -12987204.244 -21388839.170 10 0 60070 18000.00000 0 -3988307.168 -15354179.218 -19978423.292 10 0 60070 18900.00000 0 -3269449.393 -17599164.668 -18180113.660 10 0 60070 19800.00000 0 -2783904.604 -19656980.763 -16028921.686 10 0 60070 20700.00000 0 -2510467.954 -21467309.834 -13566682.971 10 0 60070 21600.00000 0 -2417268.795 -22977078.759 -10841241.673 10 0 60070 22500.00000 0 -2463345.625 -24142553.758 -7905520.146 10 0 60070 23400.00000 0 -2600608.261 -24931061.153 -4816491.935 10 0 60070 24300.00000 0 -2776103.707 -25322262.929 -1634077.979 10 0 60070 25200.00000 0 -2934489.446 -25308934.649 1580012.711 10 0 60070 26100.00000 0 -3020609.489 -24897214.100 4763475.430 10 0 60070 27000.00000 0 -2982064.265 -24106310.900 7854612.346 10 0 60070 27900.00000 0 -2771665.847 -22967689.800 10793522.183 10 0 60070 28800.00000 0 -2349674.945 -21523762.173 13523254.310 10 0 60070 29700.00000 0 -1685725.244 -19826140.479 15990905.410 10 0 60070 30600.00000 0 -760353.775 -17933528.484 18148638.082 10 0 60070 31500.00000 0 433927.571 -15909334.945 19954602.282 10 0 60070 32400.00000 0 1892065.302 -13819109.720 21373742.482 10 0 60070 33300.00000 0 3596427.331 -11727908.368 22378475.511 10 0 60070 34200.00000 0 5517298.881 -9697694.237 22949226.389 10 0 60070 35100.00000 0 7613892.428 -7784885.325 23074812.033 10 0 60070 36000.00000 0 9835831.563 -6038147.299 22752665.299 10 0 60070 36900.00000 0 12125048.939 -4496523.934 21988894.605 10 0 60070 37800.00000 0 14418021.148 -3187982.449 20798177.261 10 0 60070 38700.00000 0 16648249.106 -2128434.141 19203487.566 10 0 60070 39600.00000 0 18748881.766 -1321271.135 17235663.743 10 0 60070 40500.00000 0 20655374.590 -757438.699 14932820.882 10 0 60070 41400.00000 0 22308072.047 -416040.088 12339620.067 10 0 60070 42300.00000 0 23654605.977 -265448.580 9506406.958 10 0 60070 43200.00000 0 24652008.846 -264879.678 6488235.876 10 0 60070 44100.00000 0 25268452.390 -366356.853 3343798.122 10 0 60070 45000.00000 0 25484537.653 -516987.057 134275.575 10 0 60070 45900.00000 0 25294081.233 -661448.809 -3077857.516 10 0 60070 46800.00000 0 24704363.826 -744586.243 -6230060.330 10 0 60070 47700.00000 0 23735830.098 -713997.757 -9260953.750 10 0 60070 48600.00000 0 22421252.348 -522507.990 -12111525.979 10 0 60070 49500.00000 0 20804393.323 -130416.841 -14726290.827 10 0 60070 50400.00000 0 18938224.961 492571.184 -17054375.047 10 0 60070 51300.00000 0 16882778.592 1365820.170 -19050512.857 10 0 60070 52200.00000 0 14702717.666 2496704.120 -20675927.935 10 0 60070 53100.00000 0 12464735.490 3880061.850 -21899085.681 10 0 60070 54000.00000 0 10234887.493 5498188.988 -22696301.501 10 0 60070 54900.00000 0 8075969.784 7321367.825 -23052193.873 10 0 60070 55800.00000 0 6045053.355 9308912.987 -22959974.188 10 0 60070 56700.00000 0 4191276.249 11410689.319 -22421568.611 10 0 60070 57600.00000 0 2553984.733 13569038.646 -21447570.440 10 0 60070 58500.00000 0 1161299.641 15721035.012 -20057024.634 10 0 60070 59400.00000 0 29165.935 17800974.466 -18277049.328 10 0 60070 60300.00000 0 -839076.742 19742995.811 -16142302.080 10 0 60070 61200.00000 0 -1452586.601 21483723.236 -13694301.525 10 0 60070 62100.00000 0 -1832381.822 22964821.023 -10980617.728 10 0 60070 63000.00000 0 -2010200.874 24135354.243 -8053947.012 10 0 60070 63900.00000 0 -2026910.498 24953857.356 -4971089.202 10 0 60070 64800.00000 0 -1930529.621 25390024.832 -1791847.059 10 0 60070 65700.00000 0 -1773953.439 25425953.828 1422130.797 10 0 60070 66600.00000 0 -1612474.250 25056887.321 4608541.200 10 0 60070 67500.00000 0 -1501204.045 24291427.225 7705629.019 10 0 60070 68400.00000 0 -1492507.720 23151209.039 10653377.962 10 0 60070 69300.00000 0 -1633555.234 21670051.663 13394666.896 10 0 60070 70200.00000 0 -1964095.931 19892617.942 15876369.772 10 0 60070 71100.00000 0 -2514548.874 17872641.580 18050378.472 10 0 60070 72000.00000 0 -3304489.874 15670793.931 19874529.380 10 0 60070 72900.00000 0 -4341599.332 13352278.824 21313416.475 10 0 60070 73800.00000 0 -5621116.001 10984254.701 22339075.790 10 0 60070 74700.00000 0 -7125820.788 8633190.356 22931528.442 10 0 60070 75600.00000 0 -8826552.887 6362263.195 23079171.964 10 0 60070 76500.00000 0 -10683238.490 4228907.220 22779012.307 10 0 60070 77400.00000 0 -12646391.051 2282611.873 22036731.591 10 0 60070 78300.00000 0 -14659022.410 563062.637 20866589.628 10 0 60070 79200.00000 0 -16658886.774 -901299.656 19291160.084 10 0 60070 80100.00000 0 -18580965.289 -2094240.975 17340905.262 10 0 60070 81000.00000 0 -20360088.404 -3012177.682 15053596.473 10 0 60070 81900.00000 0 -21933586.909 -3664083.017 12473590.051 10 0 60070 82800.00000 0 -23243860.603 -4070860.487 9650972.113 10 0 60070 83700.00000 0 -24240756.466 -4264210.647 6640587.978 10 0 60070 84600.00000 0 -24883655.641 -4285039.355 3500974.821 10 0 60070 85500.00000 0 -25143180.393 -4181475.290 293218.516 10 0 60071 0.00000 0 -25002448.091 -4006581.418 -2920242.237 10 0 60071 900.00000 0 -24457818.144 -3815858.297 -6076842.056 10 0 60071 1800.00000 0 -23519099.780 -3664646.597 -9115115.896 10 0 60071 2700.00000 0 -22209211.059 -3605540.071 -11975907.549 10 0 60071 3600.00000 0 -20563303.316 -3685920.353 -14603530.580 10 0 60071 4500.00000 0 -18627387.934 -3945719.347 -16946859.744 10 0 60071 5400.00000 0 -16456523.536 -4415505.219 -18960330.613 10 0 60071 6300.00000 0 -14112640.166 -5114973.915 -20604827.592 10 0 60071 7200.00000 0 -11662092.275 -6051910.719 -21848442.988 10 0 60071 8100.00000 0 -9173043.366 -7221666.100 -22667092.722 10 0 60071 9000.00000 0 -6712791.807 -8607168.250 -23044977.311 10 0 60071 9900.00000 0 -4345149.423 -10179471.894 -22974879.933 10 0 60071 10800.00000 0 -2127981.657 -11898820.385 -22458296.668 10 0 60071 11700.00000 0 -111010.934 -13716176.565 -21505397.211 10 0 60071 12600.00000 0 1666026.484 -15575158.257 -20134817.599 10 0 60071 13500.00000 0 3174794.984 -17414297.482 -18373289.566 10 0 60071 14400.00000 0 4399288.333 -19169529.027 -16255114.194 10 0 60071 15300.00000 0 5336235.881 -20776804.486 -13821490.352 10 0 60071 16200.00000 0 5994971.366 -22174722.716 -11119711.117 10 0 60071 17100.00000 0 6396771.870 -23307067.106 -8202243.837 10 0 60071 18000.00000 0 6573696.444 -24125143.834 -5125711.681 10 0 60071 18900.00000 0 6566974.808 -24589823.710 -1949796.410 10 0 60071 19800.00000 0 6425015.144 -24673202.489 1263916.493 10 0 60071 20700.00000 0 6201115.848 -24359810.463 4453127.984 10 0 60071 21600.00000 0 5950978.293 -23647321.133 7556028.023 10 0 60071 22500.00000 0 5730125.797 -22546729.389 10512487.503 10 0 60071 23400.00000 0 5591337.726 -21081991.788 13265216.773 10 0 60071 24300.00000 0 5582206.854 -19289143.834 15760868.806 10 0 60071 25200.00000 0 5742922.861 -17214930.580 17951066.259 10 0 60071 26100.00000 0 6104375.293 -14915007.128 19793333.181 10 0 60071 27000.00000 0 6686656.012 -12451783.106 21251914.008 10 0 60071 27900.00000 0 7498024.548 -9891999.777 22298464.642 10 0 60071 28800.00000 0 8534380.613 -7304139.393 22912602.677 10 0 60071 29700.00000 0 9779267.092 -4755773.213 23082306.382 10 0 60071 30600.00000 0 11204404.874 -2310957.161 22804154.664 10 0 60071 31500.00000 0 12770738.857 -27782.280 22083402.995 10 0 60071 32400.00000 0 14429953.194 2043819.110 20933893.122 10 0 60071 33300.00000 0 16126394.132 3863920.967 19377797.334 10 0 60071 34200.00000 0 17799321.551 5404028.270 17445201.075 10 0 60071 35100.00000 0 19385396.101 6648019.775 15173530.746 10 0 60071 36000.00000 0 20821298.499 7592569.491 12606836.584 10 0 60071 36900.00000 0 22046371.293 8247029.306 9794943.579 10 0 60071 37800.00000 0 23005171.901 8632777.801 6792486.199 10 0 60071 38700.00000 0 23649828.823 8782062.953 3657845.392 10 0 60071 39600.00000 0 23942100.795 8736387.955 452008.683 10 0 60071 40500.00000 0 23855050.835 8544509.124 -2762623.888 10 0 60071 41400.00000 0 23374263.326 8260131.531 -5923463.880 10 0 60071 42300.00000 0 22498551.572 7939401.176 -8968963.594 10 0 60071 43200.00000 0 21240125.036 7638301.325 -11839825.059 10 0 60071 44100.00000 0 19624208.497 7410064.751 -14480164.122 10 0 60071 45000.00000 0 17688128.843 7302712.905 -16838605.888 10 0 60071 45900.00000 0 15479907.812 7356827.403 -18869289.445 10 0 60071 46800.00000 0 13056419.982 7603649.103 -20532761.893 10 0 60071 47700.00000 0 10481193.536 8063585.785 -21796744.227 10 0 60071 48600.00000 0 7821946.161 8745191.847 -22636754.484 10 0 60071 49500.00000 0 5147959.217 9644663.180 -23036576.613 10 0 60071 50400.00000 0 2527399.752 10745868.418 -22988566.741 10 0 60071 51300.00000 0 24701.599 12020915.112 -22493791.723 10 0 60071 52200.00000 0 -2301886.098 13431226.775 -21561998.164 10 0 60071 53100.00000 0 -4402481.925 14929085.409 -20211413.275 10 0 60071 54000.00000 0 -6237397.373 16459574.632 -18468382.070 10 0 60071 54900.00000 0 -7778529.867 17962841.898 -16366848.391 10 0 60071 55800.00000 0 -9010267.426 19376584.950 -13947690.143 10 0 60071 56700.00000 0 -9929869.339 20638658.493 -11257921.823 10 0 60071 57600.00000 0 -10547308.970 21689691.995 -8349779.877 10 0 60071 58500.00000 0 -10884587.185 22475609.105 -5279708.597 10 0 60071 59400.00000 0 -10974547.010 22949943.363 -2107266.264 10 0 60071 60300.00000 0 -10859240.747 23075853.307 1106027.438 10 0 60071 61200.00000 0 -10587919.422 22827752.726 4297880.402 10 0 60071 62100.00000 0 -10214730.060 22192487.905 7406430.602 10 0 60071 63000.00000 0 -9796218.264 21170012.590 10371439.095 10 0 60071 63900.00000 0 -9388741.533 19773532.280 13135450.694 10 0 60071 64800.00000 0 -9045902.284 18029111.447 15644900.353 10 0 60071 65700.00000 0 -8816108.539 15974759.546 17851144.406 10 0 60071 66600.00000 0 -8740364.799 13659033.169 19711397.357 10 0 60071 67500.00000 0 -8850385.941 11139211.571 21189556.756 10 0 60071 68400.00000 0 -9167113.506 8479120.272 22256900.834 10 0 60071 69300.00000 0 -9699697.089 5746691.897 22892645.875 10 0 60071 70200.00000 0 -10444984.270 3011364.147 23084352.768 10 0 60071 71100.00000 0 -11387541.535 341421.563 22828174.891 10 0 60071 72000.00000 0 -12500206.636 -2198609.813 22128942.106 10 0 60071 72900.00000 0 -13745150.775 -4550407.781 21000078.619 10 0 60071 73800.00000 0 -15075407.684 -6664038.537 19463355.278 10 0 60071 74700.00000 0 -16436807.008 -8499790.126 17548480.003 10 0 60071 75600.00000 0 -17770232.145 -10029578.719 15292533.004 10 0 60071 76500.00000 0 -19014108.663 -11237869.194 12739256.557 10 0 60071 77400.00000 0 -20107019.148 -12122071.524 9938212.121 10 0 60071 78300.00000 0 -20990334.384 -12692396.417 6943820.448 10 0 60071 79200.00000 0 -21610749.532 -12971176.424 3814303.006 10 0 60071 80100.00000 0 -21922617.387 -12991681.403 610545.421 10 0 60071 81000.00000 0 -21889979.025 -12796478.913 -2605094.397 10 0 60071 81900.00000 0 -21488204.715 -12435409.627 -5770009.438 10 0 60071 82800.00000 0 -20705174.383 -11963264.496 -8822573.016 10 0 60071 83700.00000 0 -19541946.544 -11437263.247 -11703349.338 10 0 60071 84600.00000 0 -18012886.431 -10914442.361 -14356260.355 10 0 60071 85500.00000 0 -16145247.191 -10449064.451 -16729685.126 99